GFSFLT1_850_dewp_000.txt.gz
Dewpoint
-6 -5 -4 -4 -3 -3 -4 -4 -5 -5 -5 -5 -5 -5 -5 -4 -3 -4 -6 -3 -2 -4 -6 -6 -3 -3 -4 -4 -4 -6 -7 -8
-5 -5 -4 -4 -4 -4 -4 -6 -5 -4 -5 -5 -5 -5 -5 -5 -5 -5 -3 -2 -4 -4 -4 -5 -3 -3 -3 -3 -3 -6 -6 -5
-4 -4 -4 -4 -4 -4 -5 -4 -3 -3 -4 -3 -4 -4 -4 -4 -5 -6 -5 -4 -4 -3 -4 -4 -4 -4 -4 -4 -4 -5 -4 -6
-5 -5 -5 -4 -4 -4 -3 -3 -3 -2 -2 -3 -3 -3 -3 -4 -4 -5 -5 -5 -4 -4 -4 -4 -4 -4 -4 -4 -4 -4 -5 -6
-4 -4 -4 -4 -4 -3 -3 -3 -3 -2 -2 -2 -2 -2 -2 -2 -3 -4 -5 -6 -5 -4 -3 -3 -3 -3 -4 -4 -4 -5 -5 -6
-3 -3 -4 -3 -3 -3 -3 -2 -2 -1 -1 -1 -0 -0 -0 -1 -2 -3 -4 -5 -6 -6 -4 -3 -3 -3 -4 -5 -4 -3 -4 -6
-3 -3 -2 -2 -1 -1 -0 0 0 -0 -1 -1 -2 -2 -2 -0 -0 -1 -2 -4 -5 -5 -5 -3 -2 -3 -3 -3 -2 -3 -4 -5
-3 -2 -1 -1 -1 -1 -0 -0 -0 -0 -1 -1 -2 -3 -3 -2 -2 -3 -1 -3 -3 -2 -3 -2 -4 -5 -4 -4 -4 -3 -4 -4
-1 -0 0 -0 -0 -0 -1 -0 -1 -1 -1 -1 -3 -3 -4 -5 -5 -5 -3 -2 -4 -4 -5 -6 -5 -4 -3 -4 -3 -1 -1 -7
-0 -0 -1 -1 -1 -1 -0 -0 -1 -2 -2 -2 -3 -4 -3 -5 -5 -4 -2 -3 -5 -6 -6 -3 -1 -1 -1 -2 -3 -5 -8 -9
-1 -1 0 -0 -1 -1 -1 -1 -2 -2 -2 -2 -3 -4 -5 -5 -5 -4 -4 -6 -7 -5 -1 -1 -1 -4 -5 -6 -9 -10 -12 -12
-0 -0 0 0 0 -1 -0 -1 -1 -2 -2 -1 -2 -3 -5 -5 -4 -5 -6 -6 -3 -1 -4 -6 -8 -10 -10 -9 -9 -9 -9 -9
1 1 1 -2 -3 -1 -1 -3 -2 -1 -0 -1 -2 -4 -5 -5 -5 -5 -6 -7 -7 -7 -10 -11 -11 -10 -9 -8 -8 -10 -12 -14
2 1 -0 -1 -2 -2 -2 -1 1 1 1 -3 -4 -5 -6 -7 -7 -8 -8 -8 -6 -11 -12 -12 -11 -9 -11 -12 -12 -13 -12 -12
2 -0 -1 0 -0 -0 -1 1 2 1 -1 -2 -6 -7 -8 -9 -8 -7 -7 -6 -5 -10 -10 -10 -9 -10 -11 -13 -12 -12 -12 -10
1 0 -1 1 -2 -2 -1 2 0 -1 -2 -2 -7 -8 -8 -7 -5 -5 -3 -4 -9 -9 -9 -9 -9 -11 -13 -12 -12 -11 -10 -10
-1 -1 1 1 -1 0 1 -0 -3 -3 -0 -0 -3 -4 -4 -4 -2 -2 -6 -7 -8 -8 -8 -10 -13 -13 -14 -12 -10 -10 -10 -10
1 2 2 -0 -1 -0 -1 -3 -4 -2 -1 -1 -1 -2 -2 -5 -5 -6 -6 -8 -8 -9 -12 -13 -15 -13 -11 -10 -10 -11 -12 -13
1 2 1 1 -1 -1 -3 -4 -4 -3 -3 -2 -2 -2 -2 -6 -8 -9 -9 -10 -12 -14 -14 -14 -13 -12 -12 -12 -11 -12 -13 -12

GFSFLT1_850_dewp_003.txt.gz
Dewpoint
-6 -6 -5 -4 -3 -3 -4 -4 -6 -4 -4 -4 -4 -4 -4 -4 -5 -5 -5 -5 -5 -3 -2 -4 -5 -5 -5 -4 -5 -5 -5 -6
-6 -6 -5 -4 -4 -4 -4 -5 -3 -3 -3 -3 -3 -3 -3 -3 -4 -4 -5 -5 -6 -6 -5 -5 -4 -4 -5 -4 -4 -4 -4 -6
-4 -4 -4 -4 -4 -4 -4 -4 -3 -3 -2 -2 -2 -2 -2 -2 -2 -3 -4 -4 -5 -5 -6 -5 -5 -4 -4 -4 -4 -4 -4 -5
-5 -5 -5 -4 -4 -4 -4 -4 -3 -3 -2 -2 -2 -1 -1 -1 -2 -1 -1 -3 -4 -5 -6 -5 -4 -4 -4 -4 -4 -4 -4 -4
-4 -4 -4 -4 -4 -4 -4 -3 -3 -3 -2 -1 -1 -1 -0 -0 -1 -3 -2 -0 -2 -4 -5 -5 -4 -3 -3 -4 -4 -4 -4 -4
-4 -4 -4 -4 -3 -3 -3 -3 -2 -1 -0 -1 -1 -1 -1 -2 -4 -3 -2 -1 -1 -3 -5 -5 -3 -2 -3 -4 -4 -4 -5 -5
-3 -3 -3 -2 -2 -1 -1 -0 -0 -0 -0 -1 -1 -1 -2 -2 -4 -4 -4 -4 -4 -4 -3 -5 -1 -2 -2 -2 -6 -7 -8 -7
-3 -2 -2 -0 -0 -0 -1 -1 -2 -2 -2 -2 -2 -3 -4 -4 -4 -4 -5 -5 -5 -4 -3 -3 -2 -2 -2 -6 -7 -7 -6 -3
-1 -0 0 -0 -1 -1 -1 -1 -1 -2 -3 -3 -3 -4 -4 -3 -3 -4 -5 -6 -3 -2 -3 -2 -3 -5 -7 -5 -2 -1 -1 -1
-1 -1 -1 -0 -1 -1 -1 -1 -2 -3 -4 -4 -4 -4 -6 -4 -2 -5 -6 -6 -4 -3 -4 -5 -5 -4 -1 -1 -0 -1 -2 -4
-1 -1 -0 0 -0 -1 -3 -3 -3 -4 -5 -6 -5 -6 -6 -3 -3 -5 -5 -5 -4 -6 -6 -5 -3 -1 -3 -6 -9 -9 -9 -9
0 1 1 1 -1 -2 -1 -1 -4 -4 -3 -2 -2 -5 -5 -4 -4 -4 -5 -6 -7 -5 -3 -3 -6 -10 -10 -9 -9 -9 -8 -8
0 1 1 -2 -1 -1 -3 -4 -5 -3 -1 0 -2 -5 -5 -4 -5 -6 -7 -7 -3 -5 -8 -11 -13 -12 -12 -11 -10 -12 -14 -13
1 2 1 -0 0 -0 -3 -3 -1 0 -0 -1 -3 -5 -5 -5 -7 -7 -7 -7 -6 -6 -7 -11 -11 -12 -12 -11 -12 -13 -15 -14
2 2 -0 0 1 -1 -3 -3 -1 -0 -2 -4 -5 -2 -7 -8 -7 -6 -6 -6 -3 -5 -8 -9 -10 -10 -10 -11 -14 -15 -14 -13
2 1 -0 1 2 -1 -0 -1 -1 -3 -5 -4 -1 -5 -8 -7 -6 -5 -5 -3 -4 -6 -7 -9 -9 -10 -13 -14 -15 -13 -11 -10
2 -1 -0 1 0 0 0 -2 -2 -5 -4 -3 -1 -2 -3 -3 -3 -3 -4 -5 -4 -4 -7 -10 -12 -14 -14 -12 -11 -10 -10 -11
-0 -2 -1 -1 0 -1 -3 -3 -4 -3 -3 -4 -3 -2 -2 -3 -4 -6 -7 -7 -8 -10 -12 -13 -15 -14 -12 -11 -11 -12 -12 -14
-3 -3 -2 -3 -1 -3 -4 -2 -2 -2 -2 -4 -6 -6 -6 -6 -6 -6 -8 -11 -11 -13 -14 -13 -13 -13 -12 -11 -12 -13 -15 -14

GFSFLT1_850_dewp_006.txt.gz
Dewpoint
-5 -5 -5 -4 -1 -2 -2 -4 -5 -4 -3 -3 -4 -3 -3 -2 -2 -2 -2 -3 -4 -5 -5 -5 -4 -4 -5 -6 -6 -5 -5 -6
-6 -6 -5 -5 -3 -3 -4 -5 -3 -3 -3 -2 -2 -2 -2 -1 -1 -2 -2 -2 -2 -3 -4 -5 -5 -4 -6 -5 -5 -5 -5 -5
-6 -5 -5 -4 -4 -4 -4 -4 -4 -3 -3 -3 -3 -2 -2 -1 -1 -1 -1 -1 -2 -2 -3 -3 -4 -5 -5 -5 -4 -5 -4 -4
-5 -5 -4 -4 -4 -4 -4 -4 -4 -3 -3 -3 -2 -1 -1 -1 -1 -1 -2 -3 -3 -2 -1 -2 -4 -5 -5 -5 -4 -4 -4 -4
-4 -4 -4 -4 -4 -4 -4 -3 -3 -3 -2 -1 -1 -1 -1 -1 -2 -3 -4 -4 -3 -3 -3 -2 -1 -3 -4 -5 -3 -3 -3 -3
-4 -4 -4 -4 -4 -3 -3 -2 -1 -0 -0 -0 -1 -2 -2 -2 -3 -4 -4 -4 -4 -4 -4 -4 -4 -3 -4 -2 -1 -2 -1 -1
-3 -3 -2 -2 -1 -0 -0 -1 -1 -1 -1 -1 -3 -4 -4 -5 -7 -8 -8 -8 -6 -6 -6 -6 -6 -3 -2 -0 -2 -1 -2 -4
-2 -2 -1 -0 -0 -1 -1 -1 -1 -2 -3 -4 -5 -6 -7 -8 -10 -11 -10 -6 -5 -6 -6 -6 -3 -2 -1 -1 -2 -4 -5 -5
-0 0 0 -0 -0 -0 -1 -1 -2 -3 -4 -5 -6 -6 -7 -7 -9 -10 -10 -4 -5 -5 -5 -3 -2 -2 -3 -3 -3 -2 -2 -1
-1 -1 -1 -0 -0 -0 -1 -3 -4 -4 -6 -6 -5 -7 -7 -8 -7 -9 -6 -4 -5 -4 -3 -3 -3 -4 -3 -2 -1 -1 -1 -2
0 0 0 1 1 -2 -2 -2 -3 -4 -5 -6 -5 -4 -6 -7 -7 -7 -4 -4 -4 -4 -4 -4 -4 -4 -2 -1 -2 -8 -10 -9
0 0 1 1 0 -1 -1 -3 -6 -7 -6 -3 -1 -3 -6 -8 -7 -5 -4 -4 -5 -5 -4 -3 -3 -5 -10 -10 -9 -8 -9 -10
0 1 2 2 -0 1 0 -3 -3 -2 -1 -1 -3 -5 -7 -4 -5 -5 -5 -6 -6 -6 -4 -4 -8 -9 -11 -13 -12 -11 -11 -12
0 -0 2 2 -0 1 2 -0 -0 -0 -1 -3 -5 -7 -4 -5 -6 -6 -6 -7 -5 -5 -3 -4 -7 -8 -9 -9 -10 -11 -13 -17
1 2 2 -1 -1 1 0 -0 0 -2 -4 -4 -6 -5 -3 -7 -6 -6 -6 -5 -4 -3 -3 -4 -5 -7 -10 -10 -12 -15 -16 -16
1 2 -0 -3 -2 -4 -5 -1 -2 -4 -4 -4 -4 -2 -2 -5 -6 -6 -5 -4 -4 -3 -4 -4 -5 -7 -10 -13 -14 -14 -13 -14
2 -3 -3 -4 -7 -6 -1 -2 -5 -3 -3 -2 -2 -3 -3 -3 -4 -4 -5 -5 -5 -6 -8 -8 -10 -12 -13 -12 -12 -11 -11 -12
1 -2 -6 -5 -2 -1 -3 -5 -4 -3 -3 -3 -5 -6 -6 -6 -8 -8 -7 -8 -10 -11 -12 -12 -13 -13 -12 -11 -11 -12 -13 -14
-5 -6 -2 -1 -1 -4 -4 -2 -3 -3 -4 -5 -6 -7 -8 -9 -10 -12 -13 -13 -13 -13 -13 -13 -13 -13 -12 -12 -13 -14 -16 -15

GFSFLT1_850_dewp_012.txt.gz
Dewpoint
3 4 1 -3 -2 3 8 7 3 -3 -5 -4 -3 -3 -2 -2 -2 -2 -1 -1 -1 -1 -1 -1 0 4 4 3 3 3 2 1
-3 -5 -5 -5 -1 6 6 5 -1 -3 -2 -2 -1 -0 -1 0 1 -0 -1 -1 -2 -3 -3 -0 -1 3 3 1 4 4 4 3
-1 -2 -4 -2 -2 -1 -0 -0 -3 -4 -4 -4 -3 -3 0 -1 0 -0 -1 -2 -5 -6 -6 -4 -1 1 2 3 3 4 4 4
-2 -1 -2 -3 -3 -2 -3 -3 -4 -3 -2 0 0 0 -0 -0 -2 -2 -4 -6 -9 -11 -10 -9 -11 -5 -1 0 2 2 2 3
-1 -0 -1 -3 -3 -3 -2 -1 -0 -1 -1 -1 -2 -1 -1 -1 -1 -1 -4 -5 -9 -13 -12 -17 -15 -9 -3 -1 -0 2 2 2
1 1 1 1 0 -1 -1 1 -0 -1 -1 -2 -1 0 0 -0 -0 -1 -3 -5 -6 -7 -7 -17 -14 -9 -5 -7 -5 0 2 2
1 1 1 2 2 -0 -1 0 1 -0 -1 -2 -3 -3 -0 -0 -2 -3 -4 -5 -5 -5 -5 -12 -8 -4 -2 -1 -0 0 1 1
1 1 1 2 2 1 -0 0 1 1 1 -0 -2 -2 -2 -1 -2 -3 -3 -5 -5 -4 -6 -0 0 -1 -1 -0 -1 -1 -1 -1
1 1 1 2 2 2 3 2 1 0 0 -1 -6 -9 -2 -2 -2 -3 -5 -4 -4 -4 -0 0 0 0 0 -0 0 -1 -1 -1
1 1 1 2 2 3 3 3 2 2 1 -2 -5 -3 -1 -3 -8 -10 -8 -8 -4 -1 0 0 -1 -1 -1 -2 -2 -2 -3 -4
1 1 1 1 2 3 3 2 2 2 2 -0 -1 -1 -4 -6 -5 -3 -3 -2 -0 -0 -1 -2 -2 -2 -3 -2 -3 -3 -3 -3
1 1 1 2 2 2 1 2 2 0 -0 -0 -1 -2 -4 -3 -3 -3 -2 -2 -3 -3 -3 -2 -3 -3 -3 -4 -4 -3 -4 -5
1 2 2 2 1 0 -0 0 -1 -1 -1 -1 -2 -2 -3 -3 -2 -2 -2 -2 -2 -2 -3 -3 -4 -3 -4 -4 -4 -5 -6 -7
1 2 2 1 0 -1 -1 -1 -1 -1 -2 -3 -3 -2 -2 -2 -2 -2 -2 -3 -3 -3 -3 -4 -4 -4 -4 -4 -5 -6 -7 -7
2 2 1 -0 -2 -3 -1 -1 -1 -3 -3 -3 -3 -2 -2 -2 -3 -4 -4 -4 -4 -4 -4 -5 -6 -7 -8 -8 -8 -8 -8 -9
1 1 -1 -4 -4 -1 -1 -2 -3 -2 -2 -3 -3 -3 -4 -5 -6 -6 -7 -7 -9 -9 -10 -9 -9 -9 -10 -12 -10 -8 -9 -9
0 -5 -5 -5 -3 -1 -3 -4 -5 -2 -3 -3 -4 -5 -5 -6 -7 -8 -10 -11 -11 -10 -10 -10 -9 -9 -10 -12 -13 -10 -10 -10
-5 -5 -6 -4 -2 -2 -4 -5 -4 -3 -4 -4 -5 -5 -6 -7 -9 -12 -12 -11 -10 -10 -10 -9 -9 -9 -10 -13 -15 -15 -11 -10
-5 -6 -5 -3 -2 -4 -4 -5 -5 -5 -5 -5 -5 -6 -7 -9 -12 -11 -11 -10 -10 -10 -9 -10 -10 -10 -11 -13 -15 -13 -10 -10

GFSFLT1_850_dewp_015.txt.gz
Dewpoint
3 2 1 0 2 5 6 9 8 7 5 4 2 2 2 2 1 2 3 3 4 3 3 3 3 3 3 3 4 4 4 4
1 2 1 3 5 6 7 7 7 3 1 1 0 1 1 1 2 2 3 2 1 1 1 1 1 1 1 1 2 3 3 3
0 2 3 3 3 3 3 2 2 1 0 1 1 1 2 2 2 2 1 1 -0 -1 -1 -0 -1 -1 -3 -4 -2 1 2 2
-1 1 2 3 3 2 2 2 2 1 -2 1 1 1 0 0 0 1 1 1 1 -0 -1 -1 -1 -1 -1 -1 -1 -0 1 1
-0 1 2 4 4 3 2 2 2 2 -1 1 1 2 1 1 1 1 1 -0 -2 -2 -3 -2 -1 0 -0 0 -0 0 1 1
1 1 2 3 3 4 3 2 2 3 3 1 2 2 2 2 1 0 -0 -2 -2 -3 -3 -2 -1 -1 1 2 2 2 2 2
1 1 1 2 3 4 3 3 2 2 3 3 2 2 1 1 0 -0 -2 -1 -2 -3 -3 -2 -0 1 1 1 1 1 -1 -1
1 1 1 2 3 3 3 2 2 1 1 2 2 1 1 0 -0 -1 -1 -3 -4 -4 -2 -0 0 0 0 0 0 0 -1 -1
1 1 2 2 2 2 3 3 2 2 2 2 2 2 1 0 -1 -1 -2 -3 -3 -2 -1 0 -1 -1 0 -0 -0 -1 -1 -2
0 1 1 2 2 2 3 3 2 1 2 2 2 1 0 -0 -2 -2 -3 -2 -2 -1 -1 -1 -0 -1 -2 -2 -2 -3 -3 -3
0 1 1 1 2 2 2 1 1 1 1 0 0 0 -0 -2 -2 -2 -3 -3 -2 -3 -2 -2 -1 -2 -2 -2 -3 -4 -3 -3
0 0 1 1 2 1 1 0 0 -0 -1 -1 -1 -2 -2 -3 -3 -3 -3 -2 -3 -2 -2 -2 -2 -3 -3 -4 -3 -3 -3 -3
0 1 2 1 1 1 -0 -1 -2 -2 -2 -3 -4 -4 -3 -3 -2 -3 -2 -3 -2 -2 -3 -4 -3 -4 -4 -4 -4 -4 -4 -4
1 2 1 1 1 -1 -3 -3 -2 -2 -3 -5 -5 -5 -3 -3 -3 -4 -4 -4 -5 -5 -4 -4 -4 -6 -7 -9 -9 -7 -8 -7
2 1 0 0 -2 -5 -3 -3 -2 -4 -5 -5 -5 -4 -4 -4 -4 -4 -6 -7 -8 -10 -10 -10 -10 -10 -10 -10 -8 -9 -9 -10
1 1 -1 -4 -6 -5 -4 -3 -5 -5 -5 -5 -5 -5 -5 -4 -5 -6 -8 -9 -11 -11 -11 -11 -10 -10 -10 -10 -10 -10 -9 -10
1 -3 -5 -6 -6 -5 -4 -4 -5 -5 -6 -6 -6 -5 -4 -4 -6 -8 -11 -12 -11 -10 -10 -10 -10 -10 -10 -10 -10 -11 -11 -10
-0 -4 -5 -5 -6 -5 -4 -5 -6 -6 -7 -7 -6 -4 -4 -6 -7 -11 -12 -11 -11 -10 -10 -10 -10 -10 -9 -10 -10 -11 -11 -10
-2 -4 -6 -7 -7 -6 -5 -5 -5 -6 -6 -5 -4 -5 -5 -7 -8 -11 -11 -11 -10 -10 -10 -10 -9 -9 -8 -9 -10 -10 -10 -10

GFSFLT1_850_dewp_021.txt.gz
Dewpoint
2 2 2 2 2 3 8 9 10 7 6 5 4 4 3 3 2 2 2 2 2 2 1 1 1 -1 -1 -1 -2 -2 -2 -4
2 3 2 2 4 2 5 8 8 7 3 3 1 2 1 1 1 1 2 2 1 1 1 1 -1 -2 -2 -2 -3 -5 -5 -6
3 4 4 5 6 7 7 6 4 1 1 1 1 0 0 2 2 3 2 2 2 1 1 0 -2 -2 -3 -3 -3 -3 -5 -4
2 2 2 2 2 2 1 1 0 0 -0 1 1 0 1 2 2 2 2 1 1 1 0 -2 -2 -5 -5 -4 -5 -5 0 2
3 3 3 2 2 2 2 2 2 2 2 2 2 2 1 1 1 1 1 1 1 0 -1 -2 -8 -9 -9 -5 1 2 2 1
2 3 2 3 3 3 2 2 3 3 2 2 2 2 2 2 1 1 1 1 0 -2 -8 -8 -4 -2 1 1 1 -1 -2 -2
2 2 3 3 3 3 3 3 3 2 2 2 3 3 3 3 2 2 1 -1 -6 -6 -4 -2 -1 -2 -1 -2 -2 -3 -4 -2
2 3 3 3 2 3 3 3 3 3 2 1 2 2 2 2 1 -0 -1 -6 -5 -5 -5 -5 -3 -3 -4 -5 -2 -3 -2 -3
1 1 1 1 2 2 2 2 2 2 1 1 1 0 0 -0 -1 -2 -4 -4 -3 -3 -5 -5 -2 -3 -2 -1 -2 -3 -4 -5
1 1 1 2 1 2 2 2 1 1 1 0 -1 -1 -2 -3 -4 -4 -3 -2 -2 -5 -8 -5 -3 -3 -4 -5 -6 -6 -5 -6
1 1 1 1 2 2 1 1 0 -0 -1 -1 -2 -2 -2 -4 -5 -4 -3 -2 -4 -9 -6 -5 -5 -6 -6 -6 -6 -6 -7 -8
1 2 2 2 1 1 1 -0 -2 -3 -2 -2 -3 -3 -6 -5 -5 -4 -4 -4 -10 -5 -6 -7 -8 -9 -10 -10 -10 -10 -9 -7
1 2 2 1 1 0 -1 -3 -4 -3 -4 -3 -2 -5 -5 -5 -5 -5 -5 -6 -8 -6 -7 -8 -10 -11 -11 -10 -10 -10 -10 -8
1 1 1 -0 -1 -4 -4 -5 -5 -5 -4 -3 -4 -4 -5 -5 -5 -6 -5 -7 -7 -6 -8 -11 -11 -11 -10 -10 -10 -10 -9 -10
1 1 -1 -2 -4 -4 -5 -5 -6 -6 -6 -4 -4 -3 -3 -4 -4 -5 -4 -7 -6 -8 -11 -11 -11 -11 -10 -10 -9 -10 -11 -11
1 -1 -1 -2 -4 -5 -6 -8 -8 -7 -5 -5 -5 -4 -3 -3 -3 -3 -4 -7 -7 -10 -11 -11 -10 -10 -10 -10 -10 -10 -10 -10
0 -1 -2 -3 -6 -7 -8 -8 -8 -8 -9 -9 -7 -4 -3 -3 -3 -3 -3 -6 -8 -10 -10 -11 -10 -10 -10 -10 -9 -10 -11 -11
-3 -4 -4 -6 -8 -8 -8 -8 -8 -9 -10 -10 -7 -7 -6 -4 -3 -2 -3 -5 -9 -10 -10 -10 -9 -9 -9 -8 -9 -11 -11 -11
-4 -5 -8 -9 -8 -9 -9 -9 -10 -11 -11 -10 -9 -8 -5 -6 -7 -3 -4 -5 -8 -10 -9 -9 -9 -8 -9 -11 -10 -10 -10 -10

GFSFLT1_850_dewp_024.txt.gz
Dewpoint
4 4 5 5 8 9 9 8 7 8 7 6 6 6 4 3 2 3 3 2 2 2 1 1 1 1 0 -2 -3 -4 -8 -7
7 7 8 9 10 10 9 9 8 7 5 4 4 2 1 1 2 2 2 2 2 2 2 1 1 -1 -2 -2 -3 -6 -7 -8
5 5 5 6 4 4 3 3 3 2 1 1 1 1 1 2 2 2 2 2 1 1 1 0 -0 -1 -2 -3 -9 -10 -8 -2
3 3 3 3 2 1 1 1 2 1 1 1 1 1 0 1 1 1 0 0 1 1 0 -0 -2 -6 -10 -8 -4 -1 1 -1
1 1 1 -0 -0 0 -0 -0 1 1 2 2 2 1 1 1 2 2 1 2 1 0 -4 -12 -13 -12 -6 -2 0 -2 -2 -2
2 1 1 2 2 2 2 1 1 1 2 2 2 2 2 2 2 2 2 1 -2 -8 -11 -9 -7 -9 -7 -4 -4 -6 -2 -2
1 2 2 2 2 2 3 3 3 3 3 2 2 2 2 2 2 1 0 -1 -7 -9 -6 -5 -6 -9 -3 -3 -3 -3 -2 -4
1 2 2 2 3 3 3 3 3 3 2 2 1 1 1 0 -0 -2 -3 -7 -7 -5 -3 -5 -10 -7 -4 -4 -5 -6 -7 -7
2 3 3 3 2 2 2 2 2 2 2 1 1 0 -0 -1 -3 -5 -8 -7 -5 -3 -4 -11 -11 -9 -6 -6 -7 -7 -7 -7
2 2 2 2 2 2 2 1 1 1 0 -0 -0 -1 -2 -3 -4 -8 -9 -7 -4 -3 -7 -11 -9 -8 -7 -9 -10 -10 -10 -10
1 1 2 2 1 1 1 0 -1 -1 -2 -2 -3 -4 -3 -3 -4 -6 -6 -6 -4 -4 -9 -10 -7 -8 -9 -10 -11 -10 -9 -10
2 2 2 1 1 -1 -1 -2 -3 -4 -5 -5 -5 -5 -4 -4 -5 -5 -5 -5 -5 -5 -9 -8 -7 -8 -11 -11 -11 -10 -10 -10
2 1 1 0 -2 -4 -5 -5 -5 -6 -6 -7 -6 -5 -4 -4 -4 -3 -4 -5 -5 -4 -4 -7 -7 -11 -11 -11 -12 -12 -10 -10
1 1 0 -2 -3 -4 -5 -5 -6 -8 -7 -6 -4 -4 -5 -4 -4 -4 -4 -4 -3 -3 -7 -7 -11 -11 -12 -11 -12 -11 -10 -10
1 0 -3 -2 -3 -4 -5 -6 -7 -8 -8 -7 -6 -9 -9 -5 -3 -3 -3 -4 -2 -4 -7 -9 -11 -11 -11 -11 -10 -10 -10 -9
-1 -5 -3 -3 -5 -7 -7 -8 -8 -8 -8 -9 -10 -11 -9 -10 -7 -6 -7 -6 -3 -4 -7 -8 -10 -10 -10 -10 -10 -9 -9 -10
-4 -4 -4 -7 -4 -7 -8 -8 -8 -9 -10 -11 -12 -11 -12 -10 -9 -10 -8 -4 -3 -6 -6 -8 -10 -9 -9 -9 -8 -9 -11 -10
-5 -6 -9 -8 -8 -8 -9 -10 -11 -11 -11 -10 -10 -11 -10 -9 -10 -8 -4 -3 -5 -6 -6 -7 -9 -9 -9 -9 -12 -11 -10 -10
-8 -9 -10 -11 -11 -11 -11 -11 -10 -10 -10 -10 -10 -9 -8 -10 -7 -7 -4 -4 -6 -7 -8 -8 -8 -9 -11 -13 -12 -11 -11 -12

GFSFLT1_850_dewp_027.txt.gz
Dewpoint
5 5 5 5 6 9 9 9 8 8 7 7 6 5 5 4 4 4 4 3 3 2 2 2 1 1 1 0 -1 -2 -3 -5
7 6 6 7 8 8 8 7 9 8 7 7 6 6 3 2 2 2 2 2 2 1 0 0 1 0 -0 -2 -4 -7 -11 -12
9 9 10 9 9 8 7 6 6 5 4 3 2 1 1 1 1 1 1 1 1 2 2 1 -1 -3 -9 -16 -19 -14 -9 -4
5 5 5 5 3 2 1 1 1 1 0 1 1 1 1 1 0 0 1 2 2 2 0 -6 -13 -15 -15 -18 -14 -8 -5 -7
3 3 3 1 0 1 1 1 0 0 -0 -0 -1 -1 -0 1 1 2 2 2 1 -1 -6 -13 -12 -13 -15 -15 -10 -7 -5 -5
1 1 1 2 2 2 2 2 2 2 2 2 2 2 2 2 2 2 1 -1 -4 -10 -12 -12 -13 -15 -16 -14 -11 -7 -6 -4
2 2 2 3 3 2 3 3 3 3 2 3 2 2 1 1 1 -1 -6 -9 -11 -11 -12 -12 -10 -15 -13 -11 -8 -7 -8 -8
3 4 3 3 3 3 3 3 2 2 2 2 1 1 0 -1 -3 -6 -5 -5 -6 -9 -9 -6 -6 -12 -12 -10 -8 -8 -9 -9
4 4 3 3 3 3 2 2 2 1 1 0 -0 -1 -2 -6 -6 -5 -4 -5 -5 -6 -6 -4 -6 -11 -11 -9 -8 -9 -10 -10
3 3 3 2 2 1 1 1 0 0 -0 -1 -3 -5 -6 -6 -5 -4 -4 -4 -4 -4 -4 -4 -8 -8 -9 -8 -9 -10 -10 -10
2 2 2 1 1 1 -0 -2 -1 -2 -3 -5 -6 -5 -5 -4 -4 -4 -4 -4 -4 -4 -4 -5 -5 -5 -7 -10 -11 -11 -11 -11
2 1 1 1 1 -1 -4 -4 -4 -5 -6 -6 -7 -5 -4 -4 -5 -4 -3 -3 -3 -3 -4 -4 -4 -6 -8 -11 -11 -12 -13 -12
2 1 1 0 -2 -4 -5 -5 -5 -5 -6 -7 -7 -5 -5 -9 -10 -8 -3 -3 -4 -4 -4 -3 -4 -8 -9 -11 -12 -11 -11 -10
1 0 -1 -2 -4 -4 -4 -5 -6 -7 -7 -8 -7 -8 -10 -14 -13 -14 -13 -9 -6 -6 -8 -3 -7 -9 -8 -10 -11 -11 -10 -9
1 -2 -4 -4 -3 -5 -7 -7 -7 -8 -8 -9 -10 -12 -13 -11 -11 -10 -10 -11 -7 -5 -4 -3 -6 -7 -7 -10 -10 -9 -9 -8
-2 -6 -6 -6 -5 -4 -7 -7 -8 -9 -10 -12 -12 -12 -10 -10 -9 -9 -13 -10 -4 -4 -4 -5 -6 -7 -8 -9 -9 -8 -9 -11
-5 -5 -4 -6 -8 -9 -8 -9 -11 -12 -12 -11 -10 -10 -9 -8 -8 -12 -11 -8 -4 -4 -5 -7 -7 -8 -8 -8 -9 -12 -12 -12
-5 -7 -9 -9 -10 -11 -12 -12 -12 -12 -11 -10 -9 -8 -8 -8 -11 -9 -10 -6 -5 -6 -7 -7 -7 -7 -9 -10 -12 -13 -14 -13
-7 -9 -10 -11 -12 -12 -12 -11 -11 -10 -10 -8 -8 -7 -8 -10 -10 -8 -9 -8 -7 -7 -7 -8 -8 -9 -10 -13 -15 -16 -18 -17

GFSFLT1_850_dewp_030.txt.gz
Dewpoint
5 5 5 5 4 6 10 9 9 9 9 8 7 5 5 5 4 4 4 3 2 2 1 1 1 1 0 -4 -9 -13 -18 -20
6 6 6 6 8 9 10 10 9 8 8 6 6 6 4 2 2 1 0 -0 -1 -0 0 1 1 -2 -9 -16 -19 -20 -23 -25
9 10 10 11 10 10 8 8 6 5 4 3 2 1 1 1 1 -0 -0 0 1 2 1 -2 -8 -15 -17 -18 -20 -20 -20 -18
8 7 7 7 5 3 2 1 1 -0 -1 -1 -1 -1 -1 -0 0 1 1 2 0 -4 -9 -14 -15 -15 -17 -20 -22 -22 -20 -18
5 5 4 1 -1 -0 0 0 0 1 1 1 1 1 1 1 1 1 2 -4 -8 -9 -6 -9 -13 -13 -14 -17 -19 -15 -11 -8
2 2 1 1 2 2 2 2 2 2 2 2 2 2 2 2 2 0 -4 -7 -6 -8 -7 -7 -9 -8 -8 -10 -14 -15 -11 -11
2 2 2 2 2 2 3 3 3 2 2 2 2 2 1 0 -2 -6 -7 -6 -6 -8 -8 -7 -6 -6 -5 -9 -13 -13 -11 -10
2 2 3 3 4 3 3 3 2 2 1 1 1 0 -1 -4 -6 -6 -5 -5 -5 -6 -6 -5 -4 -4 -8 -10 -9 -11 -10 -11
3 4 4 4 4 3 2 2 1 0 0 0 -1 -4 -6 -6 -4 -4 -4 -4 -4 -5 -5 -4 -3 -5 -8 -5 -6 -9 -12 -12
4 4 4 3 2 2 1 0 -1 -1 -1 -3 -6 -6 -4 -3 -4 -4 -4 -4 -4 -3 -3 -3 -4 -4 -3 -4 -5 -10 -11 -11
4 3 2 2 1 1 -0 -2 -3 -2 -5 -6 -6 -6 -5 -4 -4 -5 -7 -6 -4 -3 -3 -3 -4 -4 -3 -5 -6 -8 -11 -12
2 2 1 1 1 -1 -2 -4 -5 -5 -5 -6 -7 -7 -5 -6 -11 -14 -13 -13 -14 -13 -7 -5 -5 -4 -4 -4 -8 -9 -11 -11
1 1 1 0 -1 -2 -5 -5 -5 -5 -7 -7 -7 -8 -10 -12 -12 -11 -11 -10 -11 -11 -6 -4 -3 -4 -5 -8 -7 -7 -10 -10
1 1 0 -1 -3 -5 -4 -5 -7 -7 -8 -8 -9 -12 -12 -12 -10 -10 -9 -11 -14 -13 -5 -4 -4 -3 -6 -7 -7 -8 -9 -9
1 0 -2 -4 -4 -4 -6 -7 -7 -8 -9 -12 -12 -12 -11 -10 -9 -9 -10 -14 -12 -10 -6 -5 -4 -4 -6 -8 -8 -9 -9 -8
1 -3 -5 -5 -5 -6 -8 -8 -8 -11 -12 -13 -11 -10 -9 -9 -9 -11 -12 -12 -10 -6 -5 -5 -5 -7 -8 -8 -8 -8 -10 -12
-2 -5 -4 -5 -8 -9 -9 -11 -12 -11 -12 -10 -10 -9 -9 -9 -10 -11 -11 -10 -6 -6 -6 -7 -8 -8 -8 -8 -10 -11 -13 -16
-3 -5 -7 -9 -9 -11 -12 -11 -11 -11 -11 -10 -9 -8 -9 -10 -9 -10 -8 -9 -8 -8 -8 -8 -8 -8 -9 -10 -12 -14 -18 -19
-5 -7 -8 -10 -11 -12 -11 -10 -11 -11 -10 -9 -8 -9 -9 -10 -9 -9 -6 -6 -7 -7 -8 -7 -7 -8 -9 -12 -14 -18 -19 -17

GFSFLT1_850_dewp_033.txt.gz
Dewpoint
4 4 4 4 5 5 8 10 9 8 6 8 7 7 5 5 5 4 3 2 1 0 1 1 0 -3 -11 -16 -18 -19 -20 -21
5 5 5 6 7 8 9 9 9 8 7 7 5 5 4 2 1 1 0 0 1 2 1 -4 -10 -12 -14 -15 -16 -15 -16 -19
8 8 8 8 8 9 9 9 5 6 6 4 2 1 0 1 1 1 1 2 1 -2 -6 -9 -9 -8 -10 -12 -12 -13 -15 -20
11 11 8 6 6 4 4 2 2 2 1 0 0 0 0 0 1 1 2 1 -1 -6 -10 -13 -11 -11 -11 -9 -8 -7 -11 -15
7 6 3 1 0 0 0 0 0 1 1 1 1 2 2 2 2 2 1 -3 -7 -8 -10 -10 -9 -9 -8 -6 -6 -8 -11 -10
4 2 0 0 1 1 1 1 1 2 2 2 2 2 2 1 1 -0 -5 -6 -6 -6 -7 -7 -8 -7 -5 -5 -8 -10 -10 -9
2 1 1 1 1 2 2 2 2 3 2 2 2 1 1 -0 -3 -6 -7 -7 -6 -5 -5 -6 -6 -5 -4 -7 -8 -7 -8 -10
1 1 2 2 2 3 3 3 3 2 0 0 0 -0 -2 -5 -7 -6 -4 -4 -4 -4 -4 -4 -4 -3 -3 -6 -7 -4 -7 -9
2 2 2 3 4 3 3 2 1 0 -0 -1 -2 -5 -6 -6 -4 -3 -3 -4 -4 -6 -5 -3 -3 -3 -4 -5 -4 -4 -6 -9
3 3 3 4 4 3 2 1 -0 -1 -1 -4 -6 -6 -5 -4 -3 -4 -5 -9 -12 -12 -12 -15 -11 -4 -5 -4 -5 -5 -5 -8
4 4 4 4 3 2 0 -2 -3 -3 -5 -5 -6 -5 -5 -5 -6 -10 -13 -13 -12 -12 -13 -14 -9 -6 -4 -4 -6 -5 -6 -9
4 4 3 2 1 -0 -3 -4 -4 -5 -4 -6 -7 -7 -8 -10 -12 -13 -12 -12 -11 -12 -14 -12 -7 -4 -4 -3 -4 -7 -8 -8
3 3 2 1 -1 -3 -2 -5 -3 -4 -7 -8 -8 -9 -12 -14 -14 -12 -10 -10 -12 -14 -14 -11 -5 -4 -4 -4 -5 -7 -7 -8
2 1 0 -1 -2 -4 -4 -3 -6 -7 -8 -8 -10 -12 -14 -12 -10 -9 -10 -13 -14 -13 -10 -7 -5 -5 -4 -5 -6 -7 -8 -9
1 1 -0 -2 -4 -5 -3 -6 -7 -8 -9 -12 -13 -13 -10 -9 -8 -10 -14 -13 -12 -11 -6 -5 -5 -5 -6 -8 -8 -8 -8 -8
1 0 -2 -4 -3 -3 -6 -8 -8 -11 -11 -13 -12 -10 -9 -8 -9 -14 -13 -12 -10 -10 -7 -6 -7 -7 -8 -8 -8 -9 -10 -12
1 -1 -4 -5 -4 -8 -9 -10 -12 -11 -12 -12 -10 -9 -8 -9 -12 -12 -11 -10 -8 -8 -8 -8 -8 -9 -8 -8 -9 -10 -14 -17
0 -3 -4 -7 -9 -9 -11 -11 -10 -12 -13 -11 -9 -8 -9 -12 -11 -10 -10 -9 -7 -7 -7 -8 -8 -8 -8 -9 -10 -13 -17 -19
-0 -3 -6 -8 -9 -11 -11 -10 -12 -15 -12 -9 -9 -11 -11 -10 -10 -9 -10 -9 -6 -6 -5 -7 -7 -7 -9 -9 -12 -15 -17 -18

GFSFLT1_850_dewp_039.txt.gz
Dewpoint
3 5 4 4 9 11 11 10 8 6 8 8 5 5 6 8 6 5 4 2 1 2 1 0 -1 -1 -2 -2 -3 -4 -5 -5
6 7 7 6 10 11 11 11 9 8 8 6 4 7 8 5 4 3 2 3 2 1 -0 -1 -1 -3 -3 -2 -2 -3 -4 -5
8 9 9 9 11 11 10 10 9 9 6 7 8 7 5 4 3 3 4 2 1 -1 -0 -1 -2 -3 -3 -3 -2 -2 -3 -5
8 9 10 11 11 11 12 10 10 9 9 7 6 5 4 4 4 4 3 2 0 -0 -1 -2 -2 -2 -3 -2 -2 -3 -4 -4
8 10 11 11 11 11 10 9 8 7 5 5 4 3 3 3 3 3 3 2 1 -1 -2 -2 -1 -1 -2 -2 -3 -2 -3 -3
9 10 11 11 10 9 8 8 6 5 5 4 4 4 4 4 3 3 2 1 -0 -1 -1 -1 -1 -1 -2 -2 -2 -2 -2 -2
7 8 7 7 8 8 7 6 5 5 5 5 5 5 3 3 2 1 -1 -3 -4 -3 -2 -2 -1 -2 -3 -3 -3 -3 -2 -1
5 5 5 6 7 7 6 5 5 5 5 5 4 4 2 0 -0 -2 -2 -3 -3 -3 -1 -3 -4 -5 -5 -5 -5 -4 -2 -1
4 3 3 4 5 6 5 5 5 5 5 4 3 1 -0 -1 -2 -1 -3 -3 -4 -4 -5 -5 -6 -6 -6 -6 -5 -5 -3 -2
2 2 3 4 5 6 5 5 4 4 3 2 0 1 -1 -2 -2 -3 -4 -4 -6 -8 -6 -6 -7 -6 -6 -5 -5 -5 -3 -2
2 3 4 4 5 6 5 5 4 3 2 1 -1 -1 -2 -3 -4 -5 -5 -5 -6 -6 -7 -7 -5 -5 -5 -5 -4 -3 -3 -3
3 3 4 5 5 6 5 4 2 2 0 -3 -5 -2 -4 -4 -5 -5 -6 -6 -6 -7 -7 -5 -5 -5 -3 -5 -3 -3 -4 -3
3 4 4 5 5 4 4 2 1 -0 -1 1 -1 -4 -5 -5 -5 -6 -6 -6 -6 -7 -6 -5 -5 -4 -4 -4 -5 -6 -5 -5
3 4 5 4 4 3 2 1 -1 2 1 -2 -5 -5 -5 -6 -7 -6 -6 -6 -6 -6 -5 -5 -4 -4 -4 -5 -5 -5 -6 -7
3 4 4 3 2 1 1 -1 1 0 -3 -6 -8 -6 -5 -6 -6 -5 -5 -6 -5 -5 -5 -5 -5 -5 -5 -6 -7 -6 -7 -9
3 3 3 2 1 1 -1 -0 -1 -3 -5 -8 -8 -7 -6 -6 -5 -5 -6 -5 -5 -5 -5 -5 -5 -6 -7 -7 -8 -8 -9 -10
3 3 2 2 0 -0 -1 -1 -3 -5 -7 -7 -7 -7 -6 -6 -5 -5 -6 -6 -5 -6 -5 -5 -5 -6 -6 -8 -9 -9 -9 -10
2 2 2 1 -0 -1 -2 -4 -6 -5 -7 -7 -8 -6 -6 -7 -7 -7 -7 -6 -5 -5 -5 -5 -5 -5 -6 -7 -8 -9 -9 -10
2 2 2 1 -0 -1 -5 -4 -5 -7 -7 -8 -8 -7 -7 -8 -7 -7 -6 -5 -5 -6 -5 -6 -5 -5 -6 -7 -8 -9 -9 -9